1499223600.75,60594,15.44,74170.8,-1.11,-1.83,-1.83,0,*5F
1499223602.03,60595,15.44,74174.0,-1.13,-1.91,-1.91,0,*5C
1499223603.3,60596,15.44,74174.0,-1.13,-1.87,-1.87,0,*5F
1499223604.57,60597,15.44,74172.0,-1.13,-1.91,-1.91,0,*5E
1499223605.85,60598,15.44,74178.0,-1.13,-1.91,-1.91,0,*51
1499223607.13,60599,15.44,74178.8,-1.13,-1.99,-1.99,0,*50
1499223608.41,60600,15.44,74174.0,-1.13,-1.99,-2.03,0,*53
1499223609.63,60601,15.44,74166.8,-1.13,-2.23,-2.23,0,*52
1499223610.86,60602,15.38,74152.8,-1.13,-2.27,-2.15,0,*50
1499223612.11,60603,15.44,74160.5,-1.13,-2.03,-2.15,0,*57
1499223613.39,60604,15.44,74166.3,-1.13,-2.03,-1.99,0,*57
1499223614.64,60605,15.44,74172.8,-1.15,-1.99,-1.91,0,*58
1499223615.9,60606,15.44,74158.8,-1.15,-1.91,-1.99,0,*5B
1499223617.15,60607,15.44,74164.0,-1.15,-1.83,-1.83,0,*52
1499223618.35,60608,15.44,74164.3,-1.15,-1.71,-1.75,0,*59
1499223619.56,60609,15.44,74166.0,-1.15,-1.71,-1.75,0,*58
1499223620.81,60610,15.44,74164.3,-1.15,-1.87,-1.87,0,*54
1499223622.06,60611,15.44,74168.8,-1.15,-1.91,-1.91,0,*55
1499223623.32,60612,15.44,74164.0,-1.15,-1.99,-1.99,0,*56
1499223624.57,60613,15.44,74166.8,-1.15,-1.91,-1.91,0,*57
1499223625.82,60614,15.44,74168.3,-1.15,-1.83,-1.87,0,*54
1499223627.08,60615,15.44,74170.8,-1.15,-1.83,-1.87,0,*55
1499223628.33,60616,15.44,74172.8,-1.15,-1.91,-1.87,0,*55
1499223629.58,60617,15.44,74168.5,-1.15,-1.87,-1.87,0,*53
1499223630.83,60618,15.44,74170.5,-1.15,-1.91,-1.87,0,*5B
1499223632.08,60619,15.44,74170.3,-1.15,-2.03,-2.03,0,*5D
1499223633.34,60620,15.44,74170.8,-1.15,-2.03,-1.99,0,*57
1499223634.59,60621,15.44,74166.0,-1.15,-1.91,-1.99,0,*5E
1499223635.83,60622,15.44,74168.0,-1.17,-2.03,-2.03,0,*57
1499223637.04,60623,15.44,74170.5,-1.15,-2.23,-2.23,0,*54
1499223638.22,60624,15.44,74174.5,-1.17,-2.39,-2.31,0,*59
1499223639.42,60625,15.44,74166.3,-1.15,-2.35,-2.39,0,*5E
1499223640.62,60626,15.44,74168.8,-1.15,-2.35,-2.35,0,*51
1499223641.88,60627,15.44,74168.5,-1.15,-1.99,-1.99,0,*50
1499223643.14,60628,15.44,74168.8,-1.15,-1.87,-1.83,0,*5B
1499223644.39,60629,15.44,74168.0,-1.15,-1.87,-1.87,0,*5E
1499223645.63,60630,15.44,74168.3,-1.17,-2.03,-2.03,0,*54
1499223646.88,60631,15.44,74168.0,-1.17,-2.07,-2.07,0,*55
1499223648.07,60632,15.44,74170.0,-1.17,-2.15,-2.15,0,*56
1499223649.32,60633,15.44,74170.3,-1.15,-1.99,-2.03,0,*55
1499223650.52,60634,15.44,74174.0,-1.15,-2.23,-2.15,0,*57
1499223651.7,60635,15.44,74170.3,-1.17,-2.27,-2.27,0,*51
1499223652.89,60636,15.44,74168.5,-1.17,-2.19,-2.27,0,*5F
1499223654.11,60637,15.44,74166.5,-1.17,-2.07,-2.15,0,*50
1499223655.29,60638,15.44,74168.0,-1.17,-2.31,-2.27,0,*5B
1499223656.51,60639,15.44,74166.5,-1.19,-2.39,-2.39,0,*53
1499223657.69,60640,15.44,74162.0,-1.17,-2.39,-2.39,0,*53
1499223658.88,60641,15.44,74164.8,-1.17,-2.27,-2.19,0,*5F
1499223660.07,60642,15.44,74170.8,-1.17,-2.27,-2.39,0,*5E
1499223661.29,60643,15.44,74168.0,-1.19,-2.31,-2.39,0,*56
1499223662.51,60644,15.44,74170.0,-1.19,-2.31,-2.31,0,*59
1499223663.73,60645,15.44,74168.5,-1.19,-2.31,-2.39,0,*50
1499223664.99,60646,15.44,74164.8,-1.19,-2.03,-1.95,0,*57
1499223666.25,60647,15.44,74168.0,-1.19,-1.95,-1.95,0,*5A
1499223667.51,60648,15.44,74168.8,-1.19,-1.95,-1.95,0,*55
1499223668.77,60649,15.44,74170.5,-1.19,-1.91,-1.91,0,*54
1499223669.98,60650,15.44,74172.3,-1.19,-2.27,-2.27,0,*5C
1499223671.2,60651,15.44,74174.5,-1.21,-2.43,-2.47,0,*52
1499223672.44,60652,15.44,74172.5,-1.19,-2.43,-2.47,0,*5A
1499223673.66,60653,15.44,74174.3,-1.21,-2.35,-2.47,0,*51
1499223674.86,60654,15.44,74174.3,-1.21,-2.23,-2.23,0,*53
1499223676.05,60655,15.44,74176.0,-1.21,-2.23,-2.31,0,*51
1499223677.24,60656,15.44,74176.3,-1.21,-2.19,-2.19,0,*51
1499223678.49,60657,15.44,74172.0,-1.21,-2.11,-2.11,0,*50
1499223679.71,60658,15.44,74172.0,-1.21,-2.11,-2.19,0,*57
1499223680.91,60659,15.44,74172.3,-1.21,-2.23,-2.31,0,*5D
1499223682.09,60660,15.44,74174.8,-1.21,-2.35,-2.43,0,*55
1499223683.31,60661,15.44,74176.5,-1.19,-2.19,-2.15,0,*52
1499223684.53,60662,15.44,74174.5,-1.21,-2.19,-2.11,0,*5E
1499223685.74,60663,15.44,74168.0,-1.23,-2.23,-2.27,0,*51
1499223686.96,60664,15.44,74172.0,-1.23,-2.23,-2.15,0,*57
1499223688.23,60665,15.44,74168.5,-1.23,-2.03,-2.03,0,*53
1499223689.5,60666,15.44,74172.8,-1.23,-1.99,-1.95,0,*5C
1499223690.75,60667,15.44,74174.3,-1.21,-1.83,-1.83,0,*53
1499223691.98,60668,15.44,74172.5,-1.21,-1.91,-1.95,0,*58
1499223693.24,60669,15.44,74166.3,-1.21,-1.99,-2.07,0,*59
1499223694.48,60670,15.44,74170.0,-1.21,-2.11,-2.11,0,*55
1499223695.72,60671,15.44,74170.3,-1.21,-1.91,-1.91,0,*54
1499223696.96,60672,15.44,74174.8,-1.21,-1.95,-1.95,0,*57
1499223698.2,60673,15.44,74170.3,-1.21,-1.95,-1.91,0,*52
1499223699.45,60674,15.44,74170.8,-1.21,-2.07,-2.11,0,*56
1499223700.64,60675,15.44,74168.0,-1.21,-2.19,-2.19,0,*50
1499223701.88,60676,15.44,74168.8,-1.21,-1.99,-1.95,0,*5F
1499223703.13,60677,15.44,74170.3,-1.21,-1.99,-1.99,0,*52
1499223704.41,60678,15.44,74166.0,-1.23,-2.03,-2.03,0,*5F
1499223705.68,60679,15.44,74170.5,-1.23,-2.03,-2.03,0,*5E
1499223706.9,60680,15.44,74168.5,-1.23,-2.15,-2.23,0,*5D
1499223708.12,60681,15.44,74170.8,-1.23,-2.15,-2.23,0,*5C
1499223709.34,60682,15.44,74170.0,-1.23,-2.27,-2.35,0,*59
1499223710.55,60683,15.44,74168.5,-1.23,-2.39,-2.35,0,*57
1499223711.8,60684,15.44,74170.8,-1.23,-2.39,-2.47,0,*55
1499223713.04,60685,15.44,74170.3,-1.23,-2.39,-2.47,0,*54
1499223714.26,60686,15.44,74170.3,-1.23,-2.35,-2.35,0,*5E
1499223715.48,60687,15.44,74174.0,-1.23,-2.35,-2.35,0,*5F
1499223716.66,60688,15.44,74170.8,-1.25,-2.39,-2.39,0,*56
1499223717.88,60689,15.44,74172.3,-1.23,-2.39,-2.35,0,*5D
1499223719.16,60690,15.44,74170.8,-1.23,-2.47,-2.47,0,*59
1499223720.38,60691,15.44,74168.8,-1.23,-2.27,-2.39,0,*57
1499223721.59,60692,15.44,74170.5,-1.25,-2.39,-2.47,0,*54
1499223722.78,60693,15.44,74176.8,-1.25,-2.87,-2.87,0,*5C
1499223724.02,60694,15.44,74170.5,-1.27,-3.39,-3.43,0,*54
1499223725.28,60695,15.44,74178.0,-1.27,-3.67,-3.63,0,*5C
1499223726.52,60696,15.44,74176.3,-1.29,-3.63,-3.63,0,*55
1499223727.78,60697,15.44,74176.5,-1.35,-3.67,-3.71,0,*5E
1499223729.03,60698,15.44,74178.8,-1.35,-3.67,-3.75,0,*55
1499223730.29,60699,15.44,74178.5,-1.39,-3.51,-3.47,0,*5C
1499223731.48,60700,15.44,74176.3,-1.41,-2.91,-2.91,0,*55
1499223732.67,60701,15.44,74178.0,-1.41,-2.87,-2.91,0,*53
1499223733.86,60702,15.44,74174.8,-1.41,-2.87,-2.91,0,*50
1499223735.05,60703,15.44,74172.0,-1.41,-2.79,-2.79,0,*56
1499223736.27,60704,15.44,74174.8,-1.41,-2.43,-2.51,0,*52
1499223737.46,60705,15.44,74176.3,-1.41,-2.39,-2.39,0,*50
1499223738.65,60706,15.44,74174.0,-1.41,-2.39,-2.31,0,*5B
1499223739.84,60707,15.44,74172.5,-1.41,-2.27,-2.27,0,*52
1499223741.06,60708,15.44,74176.3,-1.39,-2.15,-2.23,0,*57
1499223742.28,60709,15.44,74176.0,-1.43,-2.79,-2.87,0,*5F
1499223743.51,60710,15.44,74174.5,-1.43,-3.31,-3.31,0,*56
1499223744.71,60711,15.44,74174.8,-1.45,-3.31,-3.31,0,*51
1499223745.93,60712,15.44,74168.3,-1.45,-3.35,-3.47,0,*57
1499223747.13,60713,15.44,74172.0,-1.45,-3.35,-3.35,0,*53
1499223748.36,60714,15.44,74178.3,-1.47,-3.07,-2.95,0,*5C
1499223749.63,60715,15.44,74172.8,-1.47,-2.71,-2.71,0,*57
1499223750.91,60716,15.44,74174.0,-1.47,-2.51,-2.51,0,*54
1499223752.13,60717,15.44,74172.8,-1.49,-2.27,-2.27,0,*5B
1499223753.35,60718,15.44,74172.0,-1.47,-2.27,-2.27,0,*5A
1499223754.57,60719,15.44,74170.3,-1.47,-2.19,-2.19,0,*5B
1499223755.85,60720,15.44,74172.3,-1.47,-1.99,-2.07,0,*55
1499223757.07,60721,15.44,74174.3,-1.47,-2.39,-2.39,0,*50
1499223758.3,60722,15.44,74174.8,-1.47,-2.95,-2.95,0,*53
1499223759.55,60723,15.44,74174.5,-1.45,-2.67,-2.67,0,*50
1499223760.78,60724,15.44,74172.0,-1.47,-2.35,-2.35,0,*55
1499223762.0,60725,15.44,74172.0,-1.47,-2.35,-2.27,0,*57
1499223763.21,60726,15.44,74166.8,-1.47,-2.35,-2.27,0,*54
1499223764.44,60727,15.44,74158.3,-1.47,-2.27,-2.35,0,*55
1499223765.68,60728,15.44,74142.3,-1.49,-2.35,-2.47,0,*52
1499223766.95,60729,15.44,74152.0,-1.47,-2.59,-2.59,0,*58
1499223768.23,60730,15.44,74170.5,-1.47,-2.47,-2.47,0,*50
1499223769.45,60731,15.44,74166.8,-1.47,-2.35,-2.27,0,*52
1499223770.67,60732,15.44,74158.5,-1.49,-2.19,-2.19,0,*5C
1499223771.89,60733,15.44,74160.0,-1.47,-2.23,-2.23,0,*53
1499223773.11,60734,15.44,74164.5,-1.49,-2.39,-2.39,0,*5A
1499223774.36,60735,15.44,74158.3,-1.47,-2.47,-2.39,0,*5C
1499223775.58,60736,15.44,74160.0,-1.47,-2.39,-2.39,0,*56
1499223776.8,60737,15.44,74160.0,-1.49,-2.35,-2.39,0,*55
1499223778.02,60738,15.44,74168.0,-1.47,-2.39,-2.39,0,*58
1499223779.23,60739,15.44,74168.8,-1.47,-2.27,-2.27,0,*59
1499223780.46,60740,15.44,74168.0,-1.47,-2.35,-2.35,0,*57
1499223781.68,60741,15.44,74170.5,-1.47,-2.27,-2.27,0,*56
1499223782.89,60742,15.44,74172.0,-1.49,-2.27,-2.35,0,*58
1499223784.17,60743,15.44,74174.8,-1.47,-2.51,-2.63,0,*55
1499223785.45,60744,15.44,74174.0,-1.47,-2.75,-2.75,0,*53
1499223786.72,60745,15.44,74172.5,-1.47,-2.75,-2.71,0,*56
1499223787.94,60746,15.44,74176.0,-1.49,-2.83,-2.83,0,*5F
1499223789.16,60747,15.44,74170.5,-1.49,-2.95,-2.87,0,*5D
1499223790.4,60748,15.44,74164.5,-1.49,-2.75,-2.83,0,*58
1499223791.68,60749,15.44,74168.3,-1.49,-2.51,-2.51,0,*50
1499223792.89,60750,15.44,74170.3,-1.49,-2.27,-2.27,0,*58
1499223794.17,60751,15.44,74166.3,-1.49,-2.07,-2.07,0,*59
1499223795.41,60752,15.44,74166.5,-1.49,-2.19,-2.11,0,*52
1499223796.63,60753,15.44,74164.3,-1.49,-2.23,-2.23,0,*5B
1499223797.87,60754,15.44,74164.5,-1.49,-2.51,-2.35,0,*5E
1499223799.15,60755,15.44,74170.0,-1.49,-2.47,-2.47,0,*5D
1499223800.41,60756,15.44,74164.5,-1.49,-2.59,-2.59,0,*5E
1499223801.69,60757,15.44,74168.3,-1.47,-2.71,-2.75,0,*55
1499223802.93,60758,15.44,74164.8,-1.49,-2.75,-2.83,0,*59
1499223804.2,60759,15.44,74168.8,-1.49,-2.75,-2.75,0,*51
1499223805.48,60760,15.44,74170.0,-1.49,-2.71,-2.63,0,*58
1499223806.72,60761,15.44,74170.0,-1.51,-2.67,-2.67,0,*53
1499223808.0,60762,15.44,74166.3,-1.53,-2.51,-2.55,0,*56
1499223809.25,60763,15.44,74166.5,-1.51,-2.51,-2.51,0,*51
1499223810.44,60764,15.44,74166.0,-1.51,-2.39,-2.43,0,*5B
1499223811.66,60765,15.44,74170.3,-1.53,-2.31,-2.23,0,*56
1499223812.86,60766,15.44,74168.3,-1.51,-2.23,-2.23,0,*54
1499223814.13,60767,15.44,74170.3,-1.49,-2.07,-2.07,0,*5C
1499223815.41,60768,15.44,74166.5,-1.49,-1.99,-2.07,0,*57
1499223816.68,60769,15.44,74168.3,-1.49,-1.95,-1.99,0,*5E
1499223817.95,60770,15.44,74162.0,-1.49,-1.99,-1.95,0,*56
1499223819.23,60771,15.44,74162.8,-1.47,-1.99,-1.87,0,*5A
1499223820.51,60772,15.44,74168.8,-1.49,-2.11,-2.07,0,*5F
1499223821.73,60773,15.44,74166.8,-1.47,-2.23,-2.19,0,*5E
1499223822.95,60774,15.44,74168.0,-1.47,-2.19,-2.19,0,*50
1499223824.22,60775,15.44,74166.8,-1.49,-2.11,-2.11,0,*5F
1499223825.45,60776,15.44,74166.0,-1.47,-2.23,-2.23,0,*52
1499223826.73,60777,15.44,74170.8,-1.47,-1.99,-2.07,0,*57
1499223828.0,60778,15.44,74172.8,-1.47,-1.99,-1.95,0,*50
1499223829.26,60779,15.44,74172.8,-1.47,-1.83,-1.75,0,*54
1499223830.51,60780,15.44,74168.3,-1.45,-1.95,-1.99,0,*55
1499223831.71,60781,15.44,74172.3,-1.45,-2.19,-2.19,0,*58
1499223832.9,60782,15.44,74170.0,-1.45,-2.43,-2.43,0,*5B
1499223834.15,60783,15.44,74160.5,-1.45,-2.67,-2.67,0,*5A
1499223835.4,60784,15.44,74164.8,-1.45,-2.55,-2.59,0,*51
1499223836.67,60785,15.44,74164.8,-1.47,-2.59,-2.59,0,*5E
1499223837.95,60786,15.44,74166.5,-1.47,-2.71,-2.63,0,*5E
1499223839.22,60787,15.44,74170.3,-1.49,-2.51,-2.51,0,*52
1499223840.44,60788,15.44,74166.0,-1.49,-2.39,-2.39,0,*5D
1499223841.65,60789,15.44,74164.0,-1.49,-2.27,-2.27,0,*5C
1499223842.9,60790,15.44,74164.5,-1.47,-2.47,-2.39,0,*53
1499223844.18,60791,15.44,74166.3,-1.47,-2.75,-2.75,0,*5B
1499223845.45,60792,15.44,74172.3,-1.49,-2.75,-2.75,0,*56
1499223846.72,60793,15.44,74168.5,-1.49,-2.59,-2.51,0,*5F
1499223848.0,60794,15.44,74166.5,-1.49,-2.51,-2.51,0,*50
1499223849.21,60795,15.5,74168.8,-1.49,-2.39,-2.39,0,*51
1499223850.43,60796,15.44,74164.0,-1.49,-2.35,-2.39,0,*5E
1499223851.64,60797,15.44,74164.0,-1.49,-2.35,-2.39,0,*5F
1499223852.86,60798,15.44,74170.3,-1.49,-2.35,-2.35,0,*5C
1499223854.08,60799,15.44,74170.5,-1.49,-2.35,-2.27,0,*5E
1499223855.29,60800,15.44,74168.5,-1.49,-2.23,-2.19,0,*5B
1499223856.56,60801,15.44,74168.8,-1.49,-2.07,-1.95,0,*5B
1499223857.83,60802,15.44,74170.3,-1.49,-1.83,-1.83,0,*50
1499223859.1,60803,15.44,74166.8,-1.47,-1.87,-1.87,0,*5F
1499223860.39,60804,15.44,74172.8,-1.47,-2.07,-1.99,0,*5C
1499223861.63,60805,15.44,74172.5,-1.47,-2.19,-2.11,0,*51
1499223862.91,60806,15.44,74176.3,-1.49,-1.99,-2.07,0,*50
1499223864.18,60807,15.44,74174.5,-1.47,-1.95,-1.95,0,*5B
1499223865.44,60808,15.44,74164.5,-1.47,-1.95,-1.95,0,*54
1499223866.67,60809,15.44,74174.0,-1.47,-2.19,-2.23,0,*5C
1499223867.89,60810,15.44,74170.3,-1.47,-2.23,-2.23,0,*5D
1499223869.11,60811,15.44,74174.0,-1.47,-2.23,-2.19,0,*55
1499223870.36,60812,15.44,74176.0,-1.49,-2.19,-2.07,0,*5E
1499223871.58,60813,15.44,74178.0,-1.47,-2.23,-2.23,0,*5E
1499223872.86,60814,15.44,74182.0,-1.47,-2.63,-2.63,0,*59
1499223874.1,60815,15.44,74182.3,-1.47,-2.95,-2.95,0,*58
1499223875.32,60816,15.44,74178.0,-1.47,-2.83,-2.87,0,*5F
1499223876.59,60817,15.44,74170.0,-1.49,-2.51,-2.63,0,*55
1499223877.87,60818,15.44,74166.3,-1.49,-2.63,-2.71,0,*58
1499223879.13,60819,15.44,74166.8,-1.49,-2.51,-2.59,0,*52
1499223880.41,60820,15.44,74170.5,-1.49,-2.63,-2.71,0,*53
1499223881.65,60821,15.44,74168.3,-1.51,-2.67,-2.67,0,*58
1499223882.85,60822,15.44,74166.8,-1.51,-2.43,-2.43,0,*5B
1499223884.12,60823,15.44,74170.0,-1.53,-2.51,-2.51,0,*58
1499223885.37,60824,15.44,74174.3,-1.51,-2.51,-2.51,0,*5D
1499223886.6,60825,15.44,74174.8,-1.51,-2.43,-2.51,0,*5F
1499223887.85,60826,15.44,74178.8,-1.51,-2.51,-2.51,0,*5F
1499223889.07,60827,15.44,74180.8,-1.51,-2.43,-2.51,0,*5D
1499223890.26,60828,15.44,74176.0,-1.51,-2.39,-2.39,0,*51
1499223891.46,60829,15.44,74178.3,-1.51,-2.31,-2.31,0,*50
1499223892.69,60830,15.44,74178.0,-1.53,-2.31,-2.31,0,*5A
1499223893.88,60831,15.44,74174.8,-1.51,-2.39,-2.39,0,*59
1499223895.16,60832,15.44,74172.8,-1.53,-2.51,-2.51,0,*58
1499223896.41,60833,15.44,74172.8,-1.51,-2.51,-2.51,0,*5B
1499223897.66,60834,15.44,74168.5,-1.51,-2.51,-2.51,0,*5C
1499223898.91,60835,15.44,74170.3,-1.51,-2.55,-2.55,0,*5D
1499223900.16,60836,15.44,74180.5,-1.51,-2.51,-2.51,0,*5E
1499223901.38,60837,15.44,74176.8,-1.53,-2.39,-2.39,0,*5D
1499223902.57,60838,15.44,74176.0,-1.51,-2.87,-2.87,0,*50
1499223903.85,60839,15.44,74170.5,-1.53,-2.63,-2.63,0,*53
1499223905.1,60840,15.44,74172.5,-1.51,-2.51,-2.51,0,*5F
1499223906.33,60841,15.44,74172.8,-1.53,-2.99,-2.99,0,*5C
1499223907.54,60842,15.44,74172.0,-1.53,-2.91,-2.91,0,*5F
1499223908.76,60843,15.44,74174.3,-1.53,-2.99,-2.99,0,*5E
1499223909.96,60844,15.44,74174.5,-1.59,-3.15,-3.23,0,*56
1499223911.16,60845,15.44,74178.5,-1.59,-3.23,-3.31,0,*51
1499223912.41,60846,15.44,74172.8,-1.59,-2.71,-2.67,0,*56
1499223913.61,60847,15.44,74170.8,-1.59,-2.83,-2.83,0,*50
1499223914.81,60848,15.44,74168.8,-1.59,-3.03,-2.95,0,*51
1499223916.02,60849,15.44,74168.8,-1.59,-2.95,-2.95,0,*5E
1499223917.28,60850,15.44,74170.0,-1.59,-2.71,-2.71,0,*56
1499223918.56,60851,15.44,74168.0,-1.61,-2.75,-2.71,0,*58
1499223919.78,60852,15.44,74164.5,-1.63,-2.83,-2.75,0,*54
1499223921.06,60853,15.44,74164.8,-1.61,-2.71,-2.71,0,*5E
1499223922.33,60854,15.44,74168.5,-1.61,-2.59,-2.63,0,*50
1499223923.53,60855,15.44,74170.0,-1.63,-2.39,-2.39,0,*5A
1499223924.72,60856,15.44,74170.0,-1.63,-2.39,-2.39,0,*59
1499223925.95,60857,15.44,74174.0,-1.61,-2.35,-2.35,0,*5A
1499223927.17,60858,15.44,74168.8,-1.61,-2.39,-2.39,0,*55
1499223928.45,60859,15.44,74176.0,-1.61,-2.47,-2.47,0,*54
1499223929.68,60860,15.44,74174.3,-1.61,-2.35,-2.35,0,*5E
1499223930.9,60861,15.44,74172.8,-1.61,-2.35,-2.35,0,*5F
1499223932.12,60862,15.44,74178.3,-1.61,-2.39,-2.39,0,*5C
1499223933.37,60863,15.44,74174.0,-1.61,-2.39,-2.47,0,*54
1499223934.57,60864,15.44,74178.0,-1.63,-2.35,-2.31,0,*5C
1499223935.76,60865,15.44,74176.3,-1.63,-2.39,-2.35,0,*55
1499223936.99,60866,15.44,74176.5,-1.61,-2.39,-2.35,0,*54
1499223938.21,60867,15.44,74176.0,-1.61,-2.23,-2.23,0,*59
1499223939.44,60868,15.44,74178.8,-1.61,-2.35,-2.35,0,*56
1499223940.67,60869,15.44,74172.5,-1.61,-2.31,-2.31,0,*57
1499223941.87,60870,15.44,74174.8,-1.59,-2.31,-2.31,0,*54
1499223943.08,60871,15.44,74178.0,-1.59,-2.27,-2.31,0,*52
1499223944.27,60872,15.44,74174.8,-1.59,-2.15,-2.27,0,*57
1499223945.47,60873,15.44,74170.5,-1.59,-2.35,-2.35,0,*57
1499223946.76,60874,15.44,74170.8,-1.61,-2.63,-2.63,0,*5B
1499223947.96,60875,15.44,74164.8,-1.59,-2.35,-2.35,0,*51
1499223949.21,60876,15.44,74166.0,-1.55,-2.47,-2.47,0,*5E
1499223950.41,60877,15.44,74164.8,-1.59,-2.35,-2.43,0,*52
1499223951.66,60878,15.44,74168.0,-1.59,-2.55,-2.59,0,*50
1499223952.91,60879,15.44,74174.5,-1.59,-2.59,-2.59,0,*5D
1499223954.11,60880,15.44,74168.8,-1.59,-3.03,-3.07,0,*5F
1499223955.32,60881,15.44,74172.5,-1.59,-2.95,-2.95,0,*5A
1499223956.52,60882,15.44,74174.8,-1.59,-2.83,-2.83,0,*59
1499223957.77,60883,15.44,74174.8,-1.59,-2.47,-2.47,0,*58
1499223958.97,60884,15.44,74172.5,-1.63,-2.39,-2.39,0,*56
1499223960.17,60885,15.44,74170.3,-1.63,-2.35,-2.35,0,*57
1499223961.42,60886,15.44,74172.3,-1.61,-2.39,-2.47,0,*5F
1499223962.67,60887,15.44,74172.8,-1.63,-2.47,-2.47,0,*55
1499223963.95,60888,15.44,74170.0,-1.61,-2.51,-2.51,0,*58
1499223965.17,60889,15.44,74174.5,-1.61,-2.39,-2.39,0,*59
1499223966.46,60890,15.44,74176.0,-1.61,-2.47,-2.47,0,*51
1499223967.68,60891,15.44,74174.8,-1.61,-2.99,-3.07,0,*56
1499223968.87,60892,15.44,74178.5,-1.63,-3.19,-3.23,0,*58
1499223970.12,60893,15.44,74174.3,-1.63,-2.71,-2.71,0,*50
1499223971.41,60894,15.44,74172.8,-1.61,-2.47,-2.47,0,*55
1499223972.63,60895,15.44,74174.5,-1.61,-2.39,-2.39,0,*54
1499223973.82,60896,15.44,74172.3,-1.63,-2.39,-2.35,0,*59
1499223975.08,60897,15.44,74176.5,-1.63,-2.47,-2.47,0,*54
1499223976.36,60898,15.44,74178.0,-1.61,-2.47,-2.47,0,*59
1499223977.63,60899,15.44,74172.8,-1.61,-2.59,-2.59,0,*58
1499223978.83,60900,15.44,74178.8,-1.63,-2.39,-2.35,0,*57
1499223980.03,60901,15.44,74178.3,-1.63,-2.35,-2.35,0,*5A
1499223981.25,60902,15.44,74174.8,-1.61,-2.35,-2.39,0,*57
1499223982.45,60903,15.44,74178.0,-1.63,-2.35,-2.39,0,*54
1499223983.65,60904,15.44,74174.5,-1.63,-2.35,-2.39,0,*53
1499223984.85,60905,15.44,74174.8,-1.63,-2.35,-2.23,0,*59
1499223986.09,60906,15.44,74178.8,-1.63,-2.59,-2.71,0,*57
1499223987.3,60907,15.44,74172.5,-1.63,-2.31,-2.35,0,*58
1499223988.52,60908,15.44,74174.3,-1.61,-2.35,-2.35,0,*51
1499223989.74,60909,15.44,74176.0,-1.61,-2.39,-2.39,0,*50
1499223990.94,60910,15.44,74176.0,-1.63,-2.35,-2.23,0,*5D
1499223992.22,60911,15.44,74174.0,-1.61,-2.63,-2.59,0,*50
1499223993.43,60912,15.44,74174.5,-1.63,-2.95,-2.99,0,*54
1499223994.68,60913,15.44,74174.0,-1.63,-2.75,-2.63,0,*5E
1499223995.93,60914,15.44,74174.0,-1.61,-2.75,-2.83,0,*55
1499223997.13,60915,15.44,74172.5,-1.63,-3.07,-3.07,0,*5F
1499223998.32,60916,15.44,74178.3,-1.63,-3.19,-3.19,0,*5C
1499223999.54,60917,15.44,74174.0,-1.65,-3.27,-3.31,0,*5C
1499224000.77,60918,15.44,74178.5,-1.65,-3.27,-3.27,0,*54
1499224001.99,60919,15.44,74174.8,-1.65,-3.03,-3.11,0,*56
1499224003.19,60920,15.44,74178.5,-1.67,-2.95,-2.91,0,*59
1499224004.4,60921,15.44,74174.3,-1.67,-3.03,-2.95,0,*52
1499224005.67,60922,15.44,74174.8,-1.65,-2.55,-2.63,0,*58
1499224006.87,60923,15.44,74172.8,-1.67,-2.43,-2.43,0,*5E
1499224008.12,60924,15.44,74168.8,-1.67,-2.71,-2.71,0,*59
1499224009.33,60925,15.44,74164.8,-1.67,-2.95,-2.95,0,*58
1499224010.52,60926,15.44,74166.3,-1.67,-2.79,-2.83,0,*5E
1499224011.77,60927,15.44,74168.3,-1.67,-2.67,-2.71,0,*5D
1499224013.02,60928,15.44,74172.0,-1.67,-2.71,-2.71,0,*55
1499224014.3,60929,15.44,74166.5,-1.69,-2.67,-2.67,0,*5A
1499224015.57,60930,15.44,74168.5,-1.69,-2.59,-2.59,0,*52
1499224016.79,60931,15.44,74170.5,-1.69,-2.79,-2.79,0,*53
1499224018.06,60932,15.44,74168.0,-1.69,-2.59,-2.55,0,*5C
1499224019.34,60933,15.44,74168.8,-1.69,-2.47,-2.47,0,*51
1499224020.61,60934,15.44,74174.3,-1.69,-2.55,-2.55,0,*56
1499224021.89,60935,15.44,74172.3,-1.69,-2.47,-2.47,0,*57
1499224023.11,60936,15.44,74166.8,-1.69,-2.39,-2.31,0,*5C
1499224024.3,60937,15.44,74170.3,-1.67,-2.39,-2.43,0,*56
1499224025.5,60938,15.44,74172.0,-1.67,-2.43,-2.43,0,*54
1499224026.74,60939,15.44,74168.8,-1.67,-2.55,-2.59,0,*59
1499224027.96,60940,15.44,74168.5,-1.69,-2.83,-2.79,0,*50
1499224029.16,60941,15.44,74174.5,-1.67,-2.79,-2.83,0,*5F
1499224030.38,60942,15.44,74172.3,-1.69,-3.15,-3.07,0,*54
1499224031.6,60943,15.44,74170.8,-1.69,-3.15,-3.19,0,*5A
1499224032.85,60944,15.44,74176.3,-1.69,-2.71,-2.79,0,*59
1499224034.07,60945,15.5,74182.0,-1.69,-3.03,-3.03,0,*50
1499224035.26,60946,15.44,74182.3,-1.71,-3.35,-3.23,0,*5D
1499224036.47,60947,15.44,74178.5,-1.71,-2.99,-2.99,0,*5B
1499224037.71,60948,15.44,74170.3,-1.71,-2.59,-2.59,0,*54
1499224038.96,60949,15.44,74164.3,-1.71,-2.51,-2.47,0,*52
1499224040.22,60950,15.44,74168.8,-1.71,-2.51,-2.51,0,*5D
1499224041.42,60951,15.44,74166.5,-1.71,-2.31,-2.31,0,*5C
1499224042.68,60952,15.44,74170.8,-1.71,-1.99,-2.11,0,*5C
1499224043.94,60953,15.44,74170.5,-1.71,-2.11,-1.99,0,*5D
1499224045.19,60954,15.44,74166.8,-1.71,-2.11,-2.07,0,*5E
1499224046.42,60955,15.44,74172.8,-1.69,-1.79,-1.79,0,*51
1499224047.61,60956,15.44,74168.3,-1.71,-2.43,-2.43,0,*5B
1499224048.88,60957,15.44,74162.3,-1.69,-2.55,-2.59,0,*5F
1499224050.16,60958,15.44,74166.8,-1.69,-2.47,-2.47,0,*5C
1499224051.41,60959,15.44,74168.0,-1.71,-2.75,-2.75,0,*54
1499224052.67,60960,15.44,74170.8,-1.71,-2.75,-2.75,0,*5E
1499224053.88,60961,15.5,74174.0,-1.69,-2.91,-2.91,0,*56
1499224055.07,60962,15.44,74174.5,-1.71,-3.19,-3.19,0,*5C
1499224056.28,60963,15.44,74178.0,-1.71,-3.31,-3.35,0,*59
1499224057.54,60964,15.44,74176.5,-1.73,-3.51,-3.51,0,*58
1499224058.79,60965,15.44,74176.5,-1.73,-3.51,-3.39,0,*57
1499224059.99,60966,15.44,74178.0,-1.75,-2.99,-3.03,0,*5E
1499224061.19,60967,15.44,74168.3,-1.75,-3.11,-3.11,0,*5D
1499224062.38,60968,15.44,74168.5,-1.75,-3.15,-3.23,0,*57
1499224063.59,60969,15.44,74170.5,-1.77,-3.23,-3.23,0,*51
1499224064.81,60970,15.44,74170.3,-1.77,-3.23,-3.23,0,*59
1499224066.03,60971,15.44,74166.0,-1.77,-3.23,-3.31,0,*5B
1499224067.25,60972,15.44,74164.3,-1.77,-3.15,-3.15,0,*5B
1499224068.44,60973,15.44,74166.0,-1.81,-3.11,-3.23,0,*52
1499224069.66,60974,15.44,74168.8,-1.77,-3.03,-3.11,0,*5E
1499224070.85,60975,15.44,74170.8,-1.81,-3.11,-3.19,0,*5D
1499224072.04,60976,15.44,74166.0,-1.81,-3.19,-3.19,0,*56
1499224073.26,60977,15.44,74170.8,-1.77,-3.03,-3.11,0,*5D
1499224074.48,60978,15.44,74170.8,-1.83,-3.11,-3.19,0,*52
1499224075.67,60979,15.44,74172.0,-1.85,-3.11,-3.11,0,*5D
1499224076.87,60980,15.5,74176.8,-1.85,-2.99,-2.99,0,*5B
1499224078.11,60981,15.44,74172.8,-1.85,-2.47,-2.59,0,*55
1499224079.34,60982,15.44,74178.0,-1.83,-2.31,-2.23,0,*5C
1499224080.56,60983,15.44,74170.3,-1.83,-2.23,-2.31,0,*5D
1499224081.78,60984,15.44,74178.3,-1.83,-2.43,-2.43,0,*59
1499224082.97,60985,15.5,74176.5,-1.81,-2.35,-2.31,0,*5E
1499224084.2,60986,15.44,74172.5,-1.77,-2.27,-2.35,0,*53
1499224085.42,60987,15.44,74170.8,-1.81,-2.47,-2.43,0,*5C
1499224086.63,60988,15.44,74174.5,-1.81,-2.39,-2.51,0,*59
1499224087.83,60989,15.44,74170.8,-1.81,-2.87,-2.87,0,*56
1499224089.02,60990,15.44,74176.5,-1.81,-3.07,-2.99,0,*58
1499224090.25,60991,15.44,74172.3,-1.77,-2.91,-2.99,0,*5E
1499224091.53,60992,15.44,74172.8,-1.77,-2.75,-2.75,0,*55
1499224092.71,60993,15.44,74174.8,-1.81,-2.83,-2.83,0,*5D
1499224093.9,60994,15.44,74172.0,-1.81,-3.07,-3.07,0,*5A
1499224095.1,60995,15.5,74174.3,-1.81,-3.35,-3.35,0,*5B
1499224096.29,60996,15.44,74172.5,-1.81,-2.87,-2.87,0,*58
1499224097.48,60997,15.44,74170.0,-1.81,-2.83,-2.83,0,*59
1499224098.71,60998,15.44,74176.5,-1.83,-2.95,-2.99,0,*58
1499224099.94,60999,15.44,74172.5,-1.83,-2.95,-2.95,0,*55
1499224101.22,61000,15.44,74178.0,-1.83,-2.71,-2.71,0,*5D
1499224102.49,61001,15.44,74172.3,-1.83,-2.55,-2.55,0,*5C
1499224103.77,61002,15.44,74168.8,-1.83,-2.63,-2.59,0,*56
1499224105.05,61003,15.5,74172.3,-1.83,-2.63,-2.59,0,*57
1499224106.29,61004,15.44,74174.0,-1.83,-2.43,-2.47,0,*5D
1499224107.57,61005,15.44,74170.8,-1.83,-2.59,-2.55,0,*54
1499224108.84,61006,15.44,74174.8,-1.83,-2.59,-2.55,0,*57
1499224110.06,61007,15.44,74176.3,-1.77,-2.35,-2.35,0,*51